Starlink 4310

operational
NORAD ID: 53074 Int'l Des: 2022-077 Owner: SPXS Country: US Constellation: starlink
LEOCIRCULARRETROGRADESSO

关于 Starlink 4310

正在加载描述...

实时位置

正在加载3D地球...

即将过境

高度历史

Altitude vs Time

uPlot chart will show altitude changes over time

两行轨道根数

1 53074U 22077AH 25340.60145489 .00000732 00000-0 54930-4 0 9995
2 53074 97.6019 159.4292 0001347 84.8800 275.2580 15.05646501186971
Epoch: Dec 6, 2025 • Age: 14 hours

当前状态

高度 551.6 km
速度 7.59 km/s
星下点 9.03°N, 10.14°E
发射日期 Jul 11, 2022
运行时间 3.4 years
类型 internet

技术详情

分类 Payload
质量 297.00 kg
干质量 275.00 kg
总质量 297.00 kg
长度 0.20 m
直径 2.80 m
跨度 9.00 m
形状 Box + pan
制造商 SPXS
平台类型 Starlink
阶段状态 In Orbit
所有者/国家 SPXS/US

大型星座

Loading constellations...